BCS830 EDDP-LIMC

Flight info

Callsign BCS830
Flight time N/A
Altitude 40000
Route NEVKO2E/08R NEVKO Q243 BAMKI Z94 KOMIB DCT TEDGO DCT SONOM/N0471F390 DCT GERSA DCT SOSON DCT DEGAD Z424 RIXUV
Aircraft A333/H-SDE3GHIJ2J3J5M1RVWXY/LB2D1

Departure

Time 2026-05-05 19:20
Airport Leipzig/Halle Airport (EDDP)

Arrival

Time N/A
Airport Milan Malpensa International Airport (LIMC)
Time Latitude Longitude Altitude Speed Heading
2026-05-05 19:01 51.40856 12.24817 469 ft 0 kts 85°
2026-05-05 19:11 51.40854 12.24785 468 ft 3 kts 85°
2026-05-05 19:12 51.40853 12.24751 468 ft 4 kts 91°
2026-05-05 19:12 51.40854 12.24708 466 ft 4 kts 91°
2026-05-05 19:12 51.40853 12.24676 466 ft 4 kts 24°
2026-05-05 19:12 51.40835 12.24676 463 ft 4 kts 355°
2026-05-05 19:13 51.40820 12.24677 468 ft 3 kts 355°
2026-05-05 19:15 51.40821 12.24677 468 ft 2 kts 355°
2026-05-05 19:15 51.40861 12.24672 464 ft 9 kts 355°
2026-05-05 19:15 51.40939 12.24662 470 ft 14 kts 355°
2026-05-05 19:16 51.41048 12.24646 470 ft 17 kts 349°
2026-05-05 19:16 51.41092 12.24563 468 ft 11 kts 271°
2026-05-05 19:16 51.41086 12.24396 469 ft 19 kts 266°
2026-05-05 19:16 51.41074 12.24148 470 ft 25 kts 265°
2026-05-05 19:17 51.41060 12.23837 466 ft 30 kts 266°
2026-05-05 19:17 51.41043 12.23491 471 ft 32 kts 265°
2026-05-05 19:17 51.41026 12.23128 469 ft 33 kts 266°
2026-05-05 19:17 51.41008 12.22738 466 ft 36 kts 265°
2026-05-05 19:18 51.40994 12.22435 461 ft 21 kts 265°
2026-05-05 19:18 51.41059 12.22273 460 ft 17 kts 301°
2026-05-05 19:18 51.41065 12.22089 460 ft 17 kts 265°
2026-05-05 19:18 51.41055 12.21886 461 ft 19 kts 265°
2026-05-05 19:19 51.41063 12.21692 460 ft 14 kts 307°
2026-05-05 19:19 51.41148 12.21720 458 ft 15 kts 49°
2026-05-05 19:19 51.41217 12.21858 459 ft 15 kts 63°
2026-05-05 19:19 51.41227 12.21920 459 ft 0 kts 83°
2026-05-05 19:20 51.41243 12.22205 459 ft 63 kts 86°
2026-05-05 19:20 51.41292 12.23283 470 ft 130 kts 85°
2026-05-05 19:20 51.41377 12.24956 869 ft 160 kts 85°
2026-05-05 19:20 51.41415 12.26753 1766 ft 165 kts 85°
2026-05-05 19:21 51.41482 12.28665 2249 ft 183 kts 84°
2026-05-05 19:21 51.41579 12.30819 2604 ft 205 kts 84°
2026-05-05 19:21 51.41695 12.33240 2868 ft 231 kts 84°
2026-05-05 19:21 51.41824 12.35902 3327 ft 245 kts 84°
2026-05-05 19:22 51.41956 12.38659 4003 ft 251 kts 85°
2026-05-05 19:22 51.42091 12.41484 4713 ft 257 kts 86°
2026-05-05 19:22 51.42229 12.44352 5430 ft 260 kts 86°
2026-05-05 19:22 51.42361 12.47273 6180 ft 265 kts 88°
2026-05-05 19:23 51.42192 12.50220 7009 ft 268 kts 106°
2026-05-05 19:23 51.41335 12.52852 7822 ft 270 kts 131°
2026-05-05 19:23 51.39836 12.54660 8553 ft 275 kts 157°
2026-05-05 19:23 51.37970 12.55355 9382 ft 278 kts 174°
2026-05-05 19:24 51.36023 12.55591 10096 ft 285 kts 176°
2026-05-05 19:24 51.33988 12.55770 10449 ft 302 kts 177°
2026-05-05 19:24 51.31826 12.55970 10686 ft 320 kts 176°
2026-05-05 19:24 51.29553 12.56199 10927 ft 335 kts 176°
2026-05-05 19:25 51.27175 12.56451 11264 ft 347 kts 176°
2026-05-05 19:25 51.24749 12.56715 11805 ft 352 kts 176°
2026-05-05 19:25 51.22297 12.56899 12403 ft 354 kts 180°
2026-05-05 19:25 51.19846 12.56518 13037 ft 355 kts 191°
2026-05-05 19:26 51.17513 12.55357 13657 ft 358 kts 203°
2026-05-05 19:26 51.15313 12.53346 14164 ft 363 kts 215°
2026-05-05 19:26 51.13449 12.50621 14686 ft 368 kts 227°
2026-05-05 19:26 51.11979 12.47249 15177 ft 374 kts 240°
2026-05-05 19:27 51.10949 12.43431 15702 ft 378 kts 248°
2026-05-05 19:27 51.10084 12.39459 16222 ft 381 kts 249°
2026-05-05 19:27 51.09230 12.35443 16693 ft 385 kts 249°
2026-05-05 19:27 51.08404 12.31375 17179 ft 389 kts 254°
2026-05-05 19:28 51.08198 12.27062 17667 ft 398 kts 273°
2026-05-05 19:28 51.08888 12.22775 18145 ft 406 kts 291°
2026-05-05 19:28 51.10345 12.18886 18561 ft 412 kts 303°
2026-05-05 19:28 51.12051 12.15200 18980 ft 415 kts 304°
2026-05-05 19:29 51.13790 12.11523 19381 ft 418 kts 304°
2026-05-05 19:29 51.15546 12.07820 19763 ft 420 kts 304°
2026-05-05 19:29 51.17316 12.04098 20184 ft 422 kts 304°
2026-05-05 19:29 51.19096 12.00364 20599 ft 424 kts 304°
2026-05-05 19:30 51.20887 11.96614 21085 ft 424 kts 304°
2026-05-05 19:30 51.22668 11.92879 21608 ft 423 kts 304°
2026-05-05 19:30 51.24446 11.89132 22027 ft 424 kts 304°
2026-05-05 19:30 51.26234 11.85363 22400 ft 427 kts 304°
2026-05-05 19:31 51.28036 11.81567 22770 ft 430 kts 304°
2026-05-05 19:31 51.29843 11.77761 23149 ft 432 kts 304°
2026-05-05 19:31 51.31665 11.73928 23513 ft 434 kts 304°
2026-05-05 19:31 51.33496 11.70076 23819 ft 436 kts 304°
2026-05-05 19:32 51.35341 11.66203 24118 ft 439 kts 304°
2026-05-05 19:32 51.37141 11.62242 24410 ft 440 kts 299°
2026-05-05 19:32 51.38556 11.57990 24722 ft 438 kts 289°
2026-05-05 19:32 51.39441 11.53279 25056 ft 435 kts 276°
2026-05-05 19:33 51.39625 11.48538 25345 ft 432 kts 263°
2026-05-05 19:33 51.39088 11.43830 25672 ft 429 kts 249°
2026-05-05 19:33 51.37857 11.39498 26008 ft 426 kts 236°
2026-05-05 19:33 51.36026 11.35804 26332 ft 425 kts 223°
2026-05-05 19:34 51.33707 11.32890 26672 ft 424 kts 211°
2026-05-05 19:34 51.31137 11.30544 27021 ft 426 kts 207°
2026-05-05 19:34 51.28489 11.28432 27378 ft 427 kts 205°
2026-05-05 19:35 51.23055 11.24396 27853 ft 435 kts 204°
2026-05-05 19:35 51.20304 11.22355 28141 ft 438 kts 204°
2026-05-05 19:35 51.17549 11.20282 28502 ft 439 kts 204°
2026-05-05 19:35 51.14791 11.18178 28848 ft 441 kts 204°
2026-05-05 19:36 51.12956 11.16768 29063 ft 442 kts 204°
2026-05-05 19:36 51.10186 11.14632 29382 ft 444 kts 204°
2026-05-05 19:36 51.07406 11.12485 29712 ft 445 kts 204°
2026-05-05 19:36 51.04610 11.10326 30002 ft 447 kts 204°
2026-05-05 19:37 51.01799 11.08160 30118 ft 453 kts 204°
2026-05-05 19:37 50.98949 11.05970 30255 ft 457 kts 204°
2026-05-05 19:37 50.96116 11.03797 30557 ft 457 kts 204°
2026-05-05 19:37 50.93226 11.01582 31013 ft 454 kts 203°
2026-05-05 19:38 50.90384 10.99408 31457 ft 452 kts 203°
2026-05-05 19:38 50.87560 10.97252 31871 ft 450 kts 203°
2026-05-05 19:38 50.84743 10.95106 32258 ft 448 kts 203°
2026-05-05 19:38 50.81937 10.92973 32642 ft 447 kts 203°
2026-05-05 19:39 50.79129 10.90842 32917 ft 449 kts 203°
2026-05-05 19:39 50.76310 10.88708 33209 ft 449 kts 203°
2026-05-05 19:39 50.73501 10.86581 33605 ft 448 kts 203°
2026-05-05 19:39 50.70698 10.84461 33981 ft 446 kts 203°
2026-05-05 19:40 50.67905 10.82350 34315 ft 444 kts 203°
2026-05-05 19:40 50.65124 10.80251 34661 ft 442 kts 203°
2026-05-05 19:40 50.62354 10.78164 34973 ft 441 kts 204°
2026-05-05 19:40 50.59589 10.76083 35325 ft 439 kts 204°
2026-05-05 19:41 50.56838 10.74015 35681 ft 438 kts 204°
2026-05-05 19:41 50.54093 10.71955 36008 ft 436 kts 204°
2026-05-05 19:41 50.51353 10.69901 36297 ft 436 kts 204°
2026-05-05 19:41 50.48615 10.67852 36578 ft 436 kts 204°
2026-05-05 19:42 50.45878 10.65805 36875 ft 435 kts 204°
2026-05-05 19:42 50.43150 10.63768 37146 ft 435 kts 204°
2026-05-05 19:42 50.40420 10.61733 37427 ft 434 kts 205°
2026-05-05 19:42 50.37727 10.59727 37695 ft 434 kts 205°
2026-05-05 19:43 50.34998 10.57697 37861 ft 435 kts 205°
2026-05-05 19:43 50.32253 10.55658 38075 ft 436 kts 205°
2026-05-05 19:43 50.29520 10.53630 38336 ft 435 kts 205°
2026-05-05 19:43 50.26786 10.51604 38577 ft 435 kts 205°
2026-05-05 19:44 50.24111 10.49393 38750 ft 435 kts 211°
2026-05-05 19:44 50.21632 10.46671 38877 ft 437 kts 219°
2026-05-05 19:44 50.19371 10.43489 39029 ft 438 kts 222°
2026-05-05 19:44 50.17196 10.40166 39166 ft 439 kts 224°
2026-05-05 19:45 50.15051 10.36758 39266 ft 441 kts 225°
2026-05-05 19:45 50.12923 10.33319 39396 ft 442 kts 225°
2026-05-05 19:45 50.10790 10.29863 39553 ft 442 kts 225°
2026-05-05 19:45 50.08558 10.26579 39720 ft 441 kts 219°
2026-05-05 19:46 50.06073 10.23778 39796 ft 443 kts 211°
2026-05-05 19:46 50.00566 10.19403 39809 ft 445 kts 205°
2026-05-05 19:47 49.94905 10.15487 39815 ft 446 kts 204°
2026-05-05 19:47 49.89226 10.11639 39816 ft 445 kts 204°
2026-05-05 19:48 49.83571 10.07768 39815 ft 445 kts 204°
2026-05-05 19:48 49.77913 10.03872 39819 ft 445 kts 204°
2026-05-05 19:49 49.72261 9.99978 39824 ft 444 kts 204°
2026-05-05 19:49 49.66624 9.96106 39822 ft 443 kts 204°
2026-05-05 19:50 49.60988 9.92247 39840 ft 443 kts 204°
2026-05-05 19:50 49.55377 9.88415 39828 ft 444 kts 204°
2026-05-05 19:51 49.49686 9.84539 39829 ft 444 kts 204°
2026-05-05 19:51 49.44064 9.80719 39829 ft 444 kts 204°
2026-05-05 19:52 49.38409 9.76886 39829 ft 445 kts 204°
2026-05-05 19:52 49.32745 9.73057 39824 ft 445 kts 204°
2026-05-05 19:53 49.27080 9.69237 39830 ft 445 kts 204°
2026-05-05 19:53 49.21415 9.65426 39829 ft 445 kts 204°
2026-05-05 19:54 49.15753 9.61627 39830 ft 445 kts 204°
2026-05-05 19:54 49.10087 9.57835 39827 ft 445 kts 204°
2026-05-05 19:55 49.04415 9.54048 39829 ft 445 kts 204°
2026-05-05 19:55 48.98741 9.50270 39828 ft 445 kts 204°
2026-05-05 19:56 48.93071 9.46504 39830 ft 445 kts 204°
2026-05-05 19:56 48.87394 9.42742 39830 ft 445 kts 204°
2026-05-05 19:57 48.81730 9.38998 39833 ft 444 kts 204°
2026-05-05 19:57 48.76056 9.35257 39855 ft 444 kts 204°
2026-05-05 19:58 48.70388 9.31529 39856 ft 444 kts 204°
2026-05-05 19:58 48.64723 9.27812 39856 ft 443 kts 204°
2026-05-05 19:59 48.58922 9.24652 39855 ft 443 kts 198°
2026-05-05 19:59 48.53047 9.21986 39852 ft 443 kts 197°
2026-05-05 20:00 48.47127 9.19400 39844 ft 443 kts 197°
2026-05-05 20:00 48.41200 9.16818 39851 ft 443 kts 197°
2026-05-05 20:01 48.35278 9.14229 39858 ft 443 kts 197°
2026-05-05 20:01 48.29352 9.11637 39857 ft 443 kts 197°
2026-05-05 20:02 48.23420 9.09049 39857 ft 444 kts 197°
2026-05-05 20:02 48.17478 9.06462 39861 ft 445 kts 197°
2026-05-05 20:03 48.11535 9.03881 39868 ft 445 kts 197°
2026-05-05 20:03 48.05589 9.01305 39862 ft 445 kts 197°
2026-05-05 20:04 47.99626 8.98729 39873 ft 446 kts 197°
2026-05-05 20:04 47.93666 8.96160 39874 ft 446 kts 197°
2026-05-05 20:05 47.87703 8.93595 39880 ft 446 kts 197°
2026-05-05 20:05 47.81741 8.91037 39879 ft 446 kts 197°
2026-05-05 20:06 47.75797 8.88389 39881 ft 445 kts 199°
2026-05-05 20:06 47.69958 8.85505 39889 ft 445 kts 200°
2026-05-05 20:07 47.64089 8.82556 39897 ft 445 kts 200°
2026-05-05 20:07 47.58222 8.79638 39901 ft 445 kts 200°
2026-05-05 20:08 47.52354 8.76749 39907 ft 445 kts 199°
2026-05-05 20:08 47.46479 8.73870 39908 ft 444 kts 200°
2026-05-05 20:09 47.40622 8.71008 39911 ft 444 kts 200°
2026-05-05 20:09 47.34776 8.68155 39912 ft 444 kts 200°
2026-05-05 20:10 47.28908 8.65298 39716 ft 440 kts 200°
2026-05-05 20:10 47.26026 8.63898 39455 ft 434 kts 200°
2026-05-05 20:10 47.23172 8.62514 39156 ft 430 kts 200°
2026-05-05 20:10 47.20340 8.61141 38826 ft 427 kts 200°
2026-05-05 20:11 47.17535 8.59782 38439 ft 425 kts 200°
2026-05-05 20:11 47.14739 8.58429 38043 ft 422 kts 200°
2026-05-05 20:11 47.11964 8.57088 37704 ft 417 kts 200°
2026-05-05 20:11 47.09225 8.55766 37373 ft 413 kts 200°
2026-05-05 20:12 47.06465 8.54559 37245 ft 418 kts 195°
2026-05-05 20:12 47.03560 8.53811 36742 ft 429 kts 188°
2026-05-05 20:12 47.00570 8.53739 36311 ft 430 kts 181°
2026-05-05 20:12 46.97595 8.54010 35958 ft 427 kts 179°
2026-05-05 20:13 46.94643 8.54405 35599 ft 424 kts 178°
2026-05-05 20:13 46.91721 8.54855 35244 ft 421 kts 178°
2026-05-05 20:13 46.88827 8.55315 34878 ft 418 kts 178°
2026-05-05 20:13 46.85932 8.55767 34410 ft 417 kts 179°
2026-05-05 20:14 46.83079 8.56204 34245 ft 408 kts 179°
2026-05-05 20:14 46.80288 8.56627 34068 ft 398 kts 180°
2026-05-05 20:14 46.77574 8.57029 33793 ft 388 kts 181°
2026-05-05 20:14 46.74925 8.57415 33677 ft 378 kts 181°
2026-05-05 20:15 46.72341 8.57789 33562 ft 368 kts 181°
2026-05-05 20:15 46.69821 8.58149 33395 ft 359 kts 181°
2026-05-05 20:15 46.67363 8.58497 33218 ft 350 kts 181°
2026-05-05 20:15 46.64969 8.58837 33083 ft 341 kts 181°
2026-05-05 20:16 46.62639 8.59167 32947 ft 332 kts 182°
2026-05-05 20:16 46.60361 8.59490 32739 ft 326 kts 182°
2026-05-05 20:16 46.58116 8.59806 32330 ft 323 kts 182°
2026-05-05 20:16 46.55889 8.60117 31789 ft 320 kts 182°
2026-05-05 20:17 46.53676 8.60425 31225 ft 319 kts 182°
2026-05-05 20:17 46.51453 8.60731 30505 ft 322 kts 181°
2026-05-05 20:17 46.49220 8.61040 29786 ft 323 kts 181°
2026-05-05 20:17 46.46986 8.61258 29139 ft 318 kts 186°
2026-05-05 20:18 46.44832 8.61067 28521 ft 311 kts 193°
2026-05-05 20:18 46.42743 8.60388 27979 ft 305 kts 201°
2026-05-05 20:18 46.40801 8.59224 27405 ft 300 kts 210°
2026-05-05 20:18 46.38979 8.57779 26787 ft 298 kts 212°
2026-05-05 20:19 46.37206 8.56236 26269 ft 296 kts 213°
2026-05-05 20:19 46.35471 8.54659 25769 ft 294 kts 214°
2026-05-05 20:19 46.33742 8.53071 25206 ft 292 kts 213°
2026-05-05 20:19 46.32035 8.51507 24737 ft 290 kts 213°
2026-05-05 20:20 46.30329 8.49969 24179 ft 288 kts 211°
2026-05-05 20:20 46.28526 8.48704 23636 ft 288 kts 202°
2026-05-05 20:20 46.26596 8.47912 23064 ft 289 kts 193°
2026-05-05 20:20 46.24588 8.47683 22440 ft 291 kts 184°
2026-05-05 20:21 46.22564 8.47780 21872 ft 290 kts 180°
2026-05-05 20:21 46.20549 8.48023 21348 ft 290 kts 179°
2026-05-05 20:21 46.18536 8.48332 21049 ft 291 kts 178°
2026-05-05 20:21 46.16532 8.48663 20990 ft 289 kts 178°
2026-05-05 20:22 46.15210 8.48881 20989 ft 289 kts 178°
2026-05-05 20:22 46.13209 8.49202 20990 ft 289 kts 178°
2026-05-05 20:22 46.11221 8.49700 20984 ft 292 kts 170°
2026-05-05 20:22 46.09278 8.50566 20993 ft 293 kts 166°
2026-05-05 20:23 46.07350 8.51548 20995 ft 294 kts 165°
2026-05-05 20:23 46.05420 8.52565 20773 ft 299 kts 165°
2026-05-05 20:23 46.03449 8.53615 20266 ft 305 kts 165°
2026-05-05 20:23 46.01448 8.54686 19761 ft 308 kts 164°
2026-05-05 20:24 45.99429 8.55769 19271 ft 311 kts 164°
2026-05-05 20:24 45.97387 8.56865 18781 ft 314 kts 164°
2026-05-05 20:24 45.95335 8.57968 18315 ft 317 kts 164°
2026-05-05 20:24 45.93280 8.59073 18006 ft 311 kts 164°
2026-05-05 20:25 45.91296 8.60147 17782 ft 296 kts 163°
2026-05-05 20:25 45.89491 8.61420 17546 ft 285 kts 152°
2026-05-05 20:25 45.87925 8.63067 17253 ft 275 kts 147°
2026-05-05 20:25 45.86451 8.64769 16847 ft 269 kts 146°
2026-05-05 20:26 45.85008 8.66456 16439 ft 267 kts 146°
2026-05-05 20:26 45.83567 8.68134 16032 ft 268 kts 146°
2026-05-05 20:26 45.82111 8.69823 15613 ft 271 kts 146°
2026-05-05 20:26 45.80636 8.71532 15222 ft 274 kts 146°
2026-05-05 20:27 45.79144 8.73258 14818 ft 277 kts 145°
2026-05-05 20:27 45.77641 8.74996 14441 ft 279 kts 145°
2026-05-05 20:27 45.76065 8.76625 14045 ft 279 kts 152°
2026-05-05 20:27 45.74382 8.78004 13634 ft 280 kts 155°
2026-05-05 20:28 45.72665 8.79327 13219 ft 281 kts 155°
2026-05-05 20:28 45.70976 8.80619 13001 ft 275 kts 155°
2026-05-05 20:28 45.69329 8.81883 12995 ft 262 kts 155°
2026-05-05 20:28 45.67741 8.83105 12994 ft 253 kts 155°
2026-05-05 20:29 45.66219 8.84271 12997 ft 251 kts 155°
2026-05-05 20:29 45.64676 8.85452 12995 ft 251 kts 155°
2026-05-05 20:29 45.63134 8.86632 12992 ft 251 kts 155°
2026-05-05 20:29 45.61555 8.87662 12983 ft 247 kts 170°
2026-05-05 20:30 45.59875 8.88014 12994 ft 244 kts 177°
2026-05-05 20:30 45.58263 8.88788 12990 ft 251 kts 147°
2026-05-05 20:30 45.57181 8.90745 12991 ft 259 kts 112°
2026-05-05 20:30 45.57067 8.93312 12990 ft 266 kts 77°
2026-05-05 20:31 45.57958 8.95605 12990 ft 268 kts 43°
2026-05-05 20:31 45.59509 8.97053 12994 ft 269 kts 24°
2026-05-05 20:31 45.61223 8.98157 12988 ft 271 kts 22°
2026-05-05 20:31 45.62943 8.99258 12992 ft 271 kts 22°
2026-05-05 20:32 45.64666 9.00368 12987 ft 271 kts 22°
2026-05-05 20:32 45.66408 9.01401 12982 ft 270 kts 14°
2026-05-05 20:32 45.68241 9.01608 12982 ft 262 kts 345°
2026-05-05 20:32 45.69836 9.00526 12990 ft 252 kts 314°
2026-05-05 20:33 45.70830 8.98544 12982 ft 244 kts 287°
2026-05-05 20:33 45.71070 8.96190 12984 ft 239 kts 261°
2026-05-05 20:33 45.70548 8.93977 12984 ft 236 kts 236°
2026-05-05 20:33 45.69388 8.92345 12993 ft 237 kts 212°
2026-05-05 20:34 45.67905 8.91295 12992 ft 239 kts 205°
2026-05-05 20:34 45.66365 8.90389 12990 ft 240 kts 204°
2026-05-05 20:34 45.64816 8.89491 12993 ft 240 kts 204°
2026-05-05 20:34 45.63272 8.88583 12989 ft 240 kts 204°
2026-05-05 20:35 45.61720 8.87700 12990 ft 241 kts 199°
2026-05-05 20:35 45.60061 8.87368 12992 ft 244 kts 178°
2026-05-05 20:35 45.58450 8.88124 12991 ft 250 kts 149°
2026-05-05 20:35 45.57287 8.89943 12991 ft 258 kts 120°
2026-05-05 20:36 45.56889 8.92456 12807 ft 267 kts 90°
2026-05-05 20:36 45.57404 8.95014 12428 ft 273 kts 59°
2026-05-05 20:36 45.58727 8.96895 12156 ft 269 kts 28°
2026-05-05 20:36 45.60414 8.98010 11914 ft 266 kts 20°
2026-05-05 20:37 45.62145 8.98920 11634 ft 264 kts 18°
2026-05-05 20:37 45.63871 8.99809 11357 ft 263 kts 19°
2026-05-05 20:37 45.65589 9.00722 11090 ft 262 kts 19°
2026-05-05 20:37 45.67345 9.01293 10999 ft 258 kts 359°
2026-05-05 20:38 45.69065 9.00781 10990 ft 251 kts 329°
2026-05-05 20:38 45.70357 8.99197 10982 ft 244 kts 300°
2026-05-05 20:38 45.70950 8.96984 10986 ft 237 kts 272°
2026-05-05 20:38 45.70751 8.94689 10989 ft 233 kts 246°
2026-05-05 20:39 45.69835 8.92817 10992 ft 231 kts 219°
2026-05-05 20:39 45.68458 8.91642 10995 ft 232 kts 205°
2026-05-05 20:39 45.66959 8.90733 10988 ft 234 kts 203°
2026-05-05 20:39 45.65449 8.89861 10992 ft 234 kts 203°
2026-05-05 20:40 45.63939 8.88979 10990 ft 234 kts 203°
2026-05-05 20:40 45.62437 8.88089 10991 ft 234 kts 203°
2026-05-05 20:40 45.60876 8.87423 10991 ft 235 kts 188°
2026-05-05 20:40 45.59254 8.87672 10993 ft 239 kts 161°
2026-05-05 20:41 45.57902 8.89052 10992 ft 245 kts 131°
2026-05-05 20:41 45.57219 8.91278 10989 ft 252 kts 99°
2026-05-05 20:41 45.57448 8.93752 10990 ft 257 kts 66°
2026-05-05 20:41 45.58561 8.95726 10992 ft 258 kts 34°
2026-05-05 20:42 45.60151 8.96923 10993 ft 260 kts 22°
2026-05-05 20:42 45.61820 8.97952 10902 ft 263 kts 22°
2026-05-05 20:42 45.63500 8.99062 10559 ft 266 kts 26°
2026-05-05 20:42 45.65144 9.00221 10361 ft 261 kts 24°
2026-05-05 20:43 45.66830 9.01096 10121 ft 257 kts
2026-05-05 20:43 45.68563 9.00973 9839 ft 252 kts 339°
2026-05-05 20:43 45.70020 8.99681 9533 ft 245 kts 309°
2026-05-05 20:43 45.70834 8.97609 9229 ft 238 kts 281°
2026-05-05 20:44 45.70860 8.95297 9011 ft 231 kts 253°
2026-05-05 20:44 45.70120 8.93317 8986 ft 227 kts 223°
2026-05-05 20:44 45.68764 8.92226 8989 ft 227 kts 192°